Tracking 18980 objects as of 18-Feb-2018
HD Live streaming from Space Station
objects crossing your sky now

NOAA 16 DEB

Track NOAA 16 DEB now!
10-day predictions


NORAD ID: 41669
Int'l Code: 2000-055PJ
Perigee: 820.4 km
Apogee: 861.5 km
Inclination: 98.8 °
Period: 101.6 minutes
Semi major axis: 7211 km
RCS: Unknown
Launch date: September 21, 2000
Source: United States (US)
Launch site: AIR FORCE WESTERN TEST RANGE (AFWTR)

Note: This is SATELLITE DEBRIS
aabbcc
Your satellite tracking list
Your tracking list is empty




NASA's NSSDC Master Catalog

Two Line Element Set (TLE):
1 41669U 00055PJ  18049.46080392  .00000884  00000-0  45576-3 0  9990
2 41669  98.8052 124.2952 0028539 359.1593   0.9530 14.17506727 95884
Source of the keplerian elements: AFSPC